Volver al catálogo

FENGYUN 1C DEB

ActivoSSO
NORAD 31753·DEBRIS·🇨🇳 China

Lanzado May 10, 1999 desde Taiyuan Satellite Launch Center

Loading…

Próximos Pases (próximas 24 horas)

TLE

ActualizadoSource: Space-Track

Época: Sep 14, 2026, 13:36 UTC

1 31753U 99025CFC 26257.56717255  .00000323  00000-0  15406-3 0  9991
2 31753  98.6032 288.0553 0159664  98.5859  51.8690 14.18937476999304

Sigue FENGYUN 1C DEB en tiempo real con AllMySat

Download on the App Store